Location: Ambatotampy
(18.8181°S, 47.6186°E)
Time: 19:35:38
(UTC+00:00)

Cosmos 1486 Rocket - Pass Details

Date: 21 January 2021
Orbit: 759 x 783 km, 74.1° (Epoch: 08 March)

Event Time Altitude Azimuth Distance (km) Brightness Sun altitude
Exits shadow 00:54:16 35° 342° (NNW) 1,226 4.7 -20.9°
Maximum altitude 00:56:33 84° 257° (WSW) 784 3.9 -20.5°
Drops below altitude 10° 01:01:53 10° 168° (SSE) 2,341 7.1 -19.4°
Sets 01:04:17 0° 167° (SSE) 3,277 7.9 -18.9°
